Погода в Токмаке

Погода в Токмаке : погода сейчас, прогноз погоды и архив. Всё, что Вы хотите узнать о погоде в Токмаке!

Поиск расширенной информации на нашем сайте:

Другие новости

Новости СМИ2

Главная страница сайта

Новости сайта

03.07.2017

Напоминаем, что на нашем специализированном сайте Метеоцентр.Азия вы можете получить высокодетализированные автоматические прогнозы погоды по пунктам России, СНГ и мира в авиационном формате (включающие направление и скорость ветра, видимость, явления погоды, количество и форму облачности, нижнюю и верхнюю границу облачности).


Погода в Токмаке - сегодня

Время (UTC), дата Ветер
(°,м/с) 
Видим.   Явления Облачность Т
(°С)
Тd
(°С)
f(%) Тe
(°С)
Pmin
(гПа)
dP
(гПа)
Po
(мм)
O2
(г/м3)
Тmin Tmax R s Состояние
почвы
21 23.07.17 070 (В) н/о    3/0 средняя 
[Ac trans]
+23.8 +11.1 45 +28  1005.4  -1.1  687  253           
00 24.07.17 тихо ()   20000 м    3/0 средняя 
[Ac trans]
+20.2 +10.9 55 +24  1006.5  687  256           
03 24.07.17 070 (В) 20000 м    ясно 
+27.1 +12.3 40 +31  1004.2  -0.1  751  273           
06 24.07.17 250 (З) 20000 м    1/1 1000 м 
[Cu hum]
+31.6 +12.4 31 +38  1001.6  -1.1  686  245  +19.9         
09 24.07.17 270 (З) 20000 м    1/1 1000 м 
[Cu hum]
+34.7 +10.4 23 +38  999.6  -1.1  686  243           
12 24.07.17 250 (З) 20000 м    1/1 1000 м 
[Cu hum]
+33.9 +11.3 25 +39  999.2  -0.6  685  243           
15 24.07.17 тихо ()   20000 м    1/0 средняя 
[Ac cuf]
+28 +11 35 +32  1001.7  0.8  686  249    +35.5       
18 24.07.17 тихо ()   н/о    ясно 
+23.8 +9.5 40 +26  1003.8  0.6  686  253    +35.5       
21 24.07.17 090 (В) н/о    ясно 
+21.6 +9.3 45 +24  1003.7  -0.7  686  254           
00 25.07.17 070 (В) 20000 м    ясно 
+21.5 +8.9 44 +23  1003.7  686  254           
03 25.07.17 110 (В) 20000 м    ясно 
+28.8 +11.8 35 +32  1001.1  -0.3  751  272           
06 25.07.17 230 (ЮЗ) 20000 м    ясно 
+34.4 +13.4 28 +43  997.9  -1.4  684  242  +19.9         
09 25.07.17 230 (ЮЗ) 20000 м    ясно 
+36.1 +12 23 +42  996.6  -0.8  684  241           
12 25.07.17 250 (З) 20000 м    1/0 средняя 
[Ac trans]
+34.1 +12.7 27 +41  996.6  -0.4  684  242           
15 25.07.17 тихо ()   20000 м    3/0 средняя, верхняя 
[Ac trans|Ci fib]
+25.6 +14.2 49 +35  1000.4  1.1  684  249    +36.5       
18 25.07.17 070 (В) н/о    ясно 
+24.6 +11.3 43 +30  1001.6  0.8  685  251    +36.5       
21 25.07.17 070 (В) н/о    ясно 
+23 +11.4 48 +28  1001.6  -0.4  685  252           
00 26.07.17 090 (В) 20000 м    6/0 верхняя 
[Ci]
+22 +11.9 53 +28  1002.1  0.1  685  253           
03 26.07.17 190 (Ю) 20000 м    6/0 средняя, верхняя 
[Ac lent|Ci fib]
+28.3 +14 42 +38  1000.6  0.5  685  247           
06 26.07.17 270 (З) 20000 м    3/0 средняя 
[Ac lent]
+34.1 +14.6 31 +45  999.2  -0.6  685  242  +21.7         
09 26.07.17 270 (З) 20000 м    6/0 средняя, верхняя 
[Ac lent|Ci fib]
+35.7 +13.5 26 +44  997  -0.7  684  241           
12 26.07.17 120 (ЮВ) 20000 м    3/3 1000 м 
[Cu med, cong]
+35.9 +10.9 22 +40  997.3  0.3  684  242           
15 26.07.17 тихо ()   20000 м    1/0 верхняя 
[Ci fib]
+27.4 +12.7 40 +35  1000.6  0.7  685  248    +37.2       
18 26.07.17 100 (В) н/о    ясно 
+24.6 +9.9 39 +27  1002.4  0.8  686  252    +37.2       
21 26.07.17 070 (В) н/о    ясно 
+24.3 +8.8 37 +26  1001.8  -0.7  685  252           
Время (UTC), дата Ветер
(°,м/с) 
Видим.   Явления Облачность Т
(°С)
Тd
(°С)
f(%) Тe
(°С)
Pmin
(гПа)
dP
(гПа)
Po
(мм)
O2
(г/м3)
Тmin Tmax R s Состояние
почвы

Для получения пояснительной информации подведите курсор к названию столбца.

ПОГОДА в Токмаке - архив

Всё, что Вы хотите узнать о погоде в Токмаке - удобно и подробно!

Выберите нужную дату (начиная с 1 января 2015* года) и нажмите кнопку "Найти".
Будут отображены архивные сводки погоды по пункту Токмак, начиная с указанной даты.


Отображать данные в формате CSV (для использования в таблицах Excel)


Внимание! Наш архив погоды предназначен исключительно для личного некоммерческого использования в познавательных целях. Если Вам необходимы официальные справки о состоянии погоды (для производственных, юридических, коммерческих и т.п. целей), обращайтесь в органы Росгидромета.

*Примечание: данная дата относится к архиву по метеостанциям СССР (Россия, СНГ, Балтия).
Архив по метеостанциям Зарубежной Европы и Азии (кроме Китая) хранится 10 дней, по другим регионам земного шара (Китай, Африка, Америка, Австралия, Океания) - 1 день.

Токмак - район местоположения метеостанции


Название, широта, долгота, высота метеостанции:
Токмак 42.8°ш. 75.3°д. 817 м над ур. моря [Кыргызстан]

Дополнительная информация

В oтличие oт бoльшинства пoгoдных сайтoв мы публикуем пoдрoбную метеoинфoрмацию в детальнoм прoфессиoнальнoм фoрмате.

Характеристики температуры и влажнoсти вoздуха измеряются на высoте 2 м в тени вдали oт зданий и деревьев.
Скoрoсть ветра измеряется на высoте 10 м (на урoвне рoста челoвека скoрoсть ветра ниже в 1.5-2 раза). Если метеoстанция нахoдится в гoрoде или в лесу, тo скoрoсть ветра занижена на 2-4 м/с пo сравнению с oткрытым местoм. Скoрoсть ветра над акватoриями крупных рек и oзёр, а также на вершинах хoлмoв на 2-5 м/с выше, чем в oбычных услoвиях.
Атмoсфернoе давление в разных тoчках местнoсти мoжет значительнo oтличаться oт давления на метеoстанции, в зависимoсти oт услoвий рельефа (при пoдъёме на 10 м давление пoнижается примернo на 1 мм рт.ст.).